Theta_e
323 322 323 322 322 322 321 322 321 323 325 326 326 325 325 323 326 332 337 337 339 339 341 343 343 345 345 342 345 348 348 349 350 352 354 355 357 357 357 356 356 355 355 355 353 352 352 352 353 352 352 352 351 351 348 344 337 332 330 327 325 325 326 325 325 325 326 326 326 325 326 326 327 328 329 330 330 333 335 333 333 337 340 342 343 342
322 322 322 323 322 323 322 322 322 322 324 325 325 325 325 324 326 330 334 335 336 337 339 342 342 343 344 341 343 346 347 348 348 351 354 355 356 357 357 357 356 356 355 354 354 353 353 353 353 352 352 352 351 350 347 343 337 335 334 331 328 325 325 325 325 325 325 325 326 326 325 327 332 330 328 331 331 332 333 329 330 335 337 342 344 342
321 320 322 323 322 322 322 322 322 321 322 323 324 324 323 324 328 329 332 334 334 335 337 341 340 339 342 341 341 343 346 349 349 350 352 356 357 357 357 357 357 357 355 355 354 354 353 353 353 353 353 352 352 350 346 342 338 337 338 336 334 330 327 325 325 325 325 326 325 326 325 326 337 337 330 332 333 333 333 329 328 334 337 341 344 344
318 320 321 323 322 321 322 322 322 322 321 322 321 320 320 325 326 324 330 334 333 334 336 339 339 338 341 340 340 341 345 349 349 348 350 355 357 357 357 357 357 357 356 356 355 354 354 353 353 353 353 352 352 351 347 343 340 340 339 339 339 336 332 328 326 325 325 326 325 325 325 324 335 341 333 330 332 332 334 331 328 330 336 340 342 345
319 321 322 322 321 321 320 321 322 320 319 320 320 318 320 325 327 325 329 332 332 331 334 336 333 334 339 339 340 341 342 346 348 348 350 353 356 356 356 357 357 357 357 356 356 356 355 354 354 354 353 353 352 352 348 343 340 339 339 339 340 338 336 331 327 325 324 325 325 324 325 323 329 336 331 328 331 332 334 334 331 329 333 340 342 344
320 321 322 321 320 321 320 320 320 319 318 317 319 319 320 326 328 329 330 329 327 326 330 332 326 328 336 339 340 340 341 344 345 347 349 353 355 356 356 357 357 357 357 357 356 356 356 355 355 355 354 353 352 351 348 344 340 338 338 338 338 337 336 333 328 326 326 325 326 325 326 326 326 329 329 329 331 335 336 337 338 333 330 337 341 343
320 322 321 320 320 320 320 319 320 320 318 315 318 321 320 324 327 329 329 327 324 324 331 331 326 326 332 337 340 340 341 342 344 347 350 354 355 356 357 357 357 357 357 357 356 356 356 356 356 356 355 354 353 352 348 345 343 340 338 337 337 337 336 335 333 331 331 330 330 330 328 326 326 327 330 330 331 336 339 338 340 337 331 334 339 342
319 320 321 321 320 319 319 319 320 320 317 316 320 321 320 320 323 327 328 326 325 327 330 331 328 325 326 333 340 341 340 341 345 348 349 352 355 357 356 356 357 357 357 358 357 357 356 357 357 356 355 354 353 353 351 348 345 342 341 339 339 338 338 338 337 337 337 337 339 339 331 327 328 328 330 332 331 335 337 336 338 338 334 332 336 340
320 320 320 321 320 320 319 319 320 320 318 318 321 321 321 321 321 324 325 325 327 327 325 327 328 324 323 331 339 341 339 341 345 346 347 350 353 356 356 356 357 357 357 358 358 358 357 357 357 356 356 354 353 354 353 350 346 344 343 341 341 340 340 340 340 341 340 342 346 344 336 331 329 329 331 332 333 333 335 336 336 336 335 333 335 339
323 321 321 321 320 320 320 321 321 320 319 321 321 322 323 321 320 320 322 323 326 325 323 325 327 324 322 326 333 336 336 339 342 343 345 348 351 355 356 355 356 357 358 358 358 358 357 356 357 356 357 356 355 355 355 353 350 347 344 343 344 342 343 342 342 344 344 346 349 347 343 338 332 331 331 332 334 335 335 336 336 335 334 334 335 338
324 324 323 322 321 321 322 322 322 321 322 321 321 322 323 322 322 320 320 321 323 323 323 325 326 325 323 325 330 333 335 339 340 340 343 346 349 353 355 355 355 357 358 357 358 358 357 357 357 357 357 356 356 356 356 356 354 349 345 344 345 344 345 344 345 346 346 349 350 349 347 343 334 333 332 332 334 334 335 336 336 336 335 336 336 339
323 324 323 324 323 322 321 322 324 323 322 322 321 321 320 320 320 319 319 320 321 321 323 325 327 325 322 325 330 335 336 338 337 339 341 344 348 352 354 354 354 356 358 357 358 358 358 358 358 358 357 358 357 357 357 357 356 352 345 344 346 346 346 346 347 348 348 351 352 351 350 344 337 336 334 333 334 334 335 336 336 336 335 336 338 339
321 322 323 324 324 324 322 322 323 322 323 322 321 320 317 317 320 319 318 318 319 320 322 325 326 324 323 328 333 336 336 336 336 338 340 342 347 350 352 353 353 355 356 357 358 358 358 359 359 358 358 359 358 358 357 357 357 355 348 343 345 346 346 347 348 348 350 352 352 351 349 345 340 337 334 334 335 335 336 337 336 336 335 336 338 339
318 321 322 322 324 324 323 321 321 321 322 322 320 319 316 317 320 320 318 318 318 318 321 324 324 322 323 328 334 335 335 336 338 338 338 341 343 345 349 353 353 354 355 356 358 357 358 359 359 358 359 359 359 357 357 357 357 356 351 344 343 345 346 347 348 349 351 351 351 350 349 345 342 339 337 336 336 337 337 337 337 336 334 335 337 339
316 318 321 321 323 324 324 323 323 322 323 322 322 321 318 317 320 320 318 317 318 318 319 321 321 319 320 326 333 333 335 336 335 336 337 337 338 341 345 349 350 352 354 355 357 356 358 358 359 359 358 359 359 357 357 357 356 356 352 346 343 344 345 346 347 349 350 350 350 351 350 348 345 341 340 339 338 338 338 337 337 335 335 335 336 338
316 317 321 322 323 324 324 324 324 323 322 323 324 321 319 319 320 320 318 318 318 317 317 318 319 322 324 330 332 332 333 334 335 335 334 335 337 338 341 345 348 351 352 355 356 356 357 358 357 358 358 359 359 357 358 357 356 355 352 348 344 343 344 345 346 348 350 351 352 351 351 350 347 345 344 341 338 338 338 337 336 335 335 335 336 338
316 318 321 322 323 324 324 324 324 324 322 323 322 319 321 323 322 319 318 319 319 318 319 318 319 323 324 327 330 330 330 331 333 334 334 335 335 337 337 340 345 349 351 353 356 355 356 357 358 358 358 358 358 357 356 356 354 351 349 347 344 344 344 344 346 346 348 351 351 351 351 351 350 349 347 343 338 338 337 337 336 336 335 334 336 337
317 317 320 321 322 323 324 325 324 324 324 323 321 321 323 324 323 321 318 318 319 318 319 318 318 320 320 322 327 328 328 330 331 331 333 333 335 336 335 337 342 345 348 352 355 356 356 356 358 358 357 357 357 356 356 354 351 348 346 344 343 344 344 344 345 346 348 349 349 349 351 351 350 350 349 345 341 340 338 339 337 337 336 336 336 338
316 316 319 320 321 322 323 324 323 325 325 323 324 325 324 320 320 321 319 319 319 318 318 317 316 317 317 320 325 327 326 328 329 329 332 333 333 335 335 338 343 342 345 351 354 355 356 356 357 357 357 357 357 357 356 354 351 348 345 343 342 343 343 343 344 345 346 347 348 349 349 349 349 349 349 348 347 344 341 340 339 339 339 338 337 338
315 316 318 319 321 322 322 322 320 321 324 324 324 326 324 322 321 321 321 320 319 318 319 317 316 317 320 323 325 327 328 328 328 328 330 331 333 334 335 338 342 343 343 348 353 355 356 355 356 356 356 357 357 358 357 356 353 351 348 344 342 343 343 343 344 345 346 346 348 348 348 349 348 349 349 349 350 347 343 341 341 340 340 339 339 337
316 317 318 320 320 320 320 321 322 321 322 323 322 323 323 323 323 322 322 321 319 319 319 319 318 317 323 327 327 328 330 329 329 330 330 332 332 333 335 337 339 342 344 347 351 354 355 355 355 356 355 356 357 358 358 358 356 354 353 349 344 344 344 343 343 344 345 346 347 348 348 348 348 349 350 349 347 345 343 342 341 341 341 341 340 339
316 317 318 318 318 318 319 321 322 322 323 323 322 322 322 322 322 321 321 321 320 319 319 320 318 320 325 329 327 327 328 328 329 330 329 332 332 331 333 336 337 342 346 348 350 351 353 354 355 355 356 356 356 358 358 358 357 357 355 353 348 345 345 345 344 342 343 345 345 347 347 348 349 348 349 347 345 344 343 342 341 342 342 341 340 339
315 316 318 318 318 319 321 321 322 321 322 322 323 324 325 324 322 320 320 321 320 319 320 320 318 322 327 330 328 328 329 327 327 329 330 330 331 331 331 333 336 342 346 347 348 349 352 355 355 355 356 356 355 357 357 358 358 358 357 355 353 348 345 347 347 345 342 343 344 345 346 348 348 349 348 346 346 344 343 341 340 340 340 340 340 339
315 316 317 318 318 319 320 320 321 321 321 321 322 325 325 325 324 322 323 323 322 320 320 320 319 322 328 330 329 329 329 329 329 329 330 330 330 331 331 332 336 341 345 346 345 348 350 353 356 355 355 356 355 357 357 357 358 358 358 357 355 353 349 350 352 349 344 343 344 345 346 347 348 348 348 347 347 345 344 344 343 340 339 339 338 338
315 317 317 318 318 318 318 319 320 321 321 321 323 325 324 325 325 325 325 325 324 322 322 321 319 322 328 331 330 329 329 328 329 329 330 330 330 331 331 335 339 344 348 348 347 349 350 353 355 355 356 356 355 356 357 357 358 358 358 357 357 356 355 354 354 352 346 343 344 345 345 346 347 348 348 347 346 344 344 347 348 343 338 338 338 338
314 316 318 318 319 318 318 319 319 320 321 321 323 323 323 324 324 324 324 323 323 324 323 322 320 324 331 333 331 331 329 328 329 330 329 329 330 330 330 334 341 346 350 352 350 351 351 353 356 355 355 356 355 356 357 357 358 357 357 357 357 358 358 356 356 355 350 344 344 345 345 346 346 347 347 346 346 346 346 349 351 347 340 336 337 338
312 313 315 317 319 319 319 320 318 317 318 320 321 322 322 323 323 324 323 322 323 324 323 324 325 325 329 332 332 331 330 329 329 329 331 332 331 330 332 336 339 341 344 347 349 350 351 353 356 357 355 355 355 356 356 357 357 357 357 357 357 358 358 357 357 356 352 346 345 346 345 345 346 346 346 346 346 348 349 350 352 350 344 338 337 338
311 311 313 315 317 317 318 318 316 315 316 317 318 320 321 321 322 323 322 324 327 325 322 326 329 326 326 331 332 330 331 331 330 333 333 333 333 333 334 337 337 337 342 345 348 350 352 354 356 356 355 355 355 355 356 357 356 357 357 357 357 358 358 358 357 355 352 349 347 346 345 344 345 346 347 347 346 348 349 350 351 349 345 341 338 338
310 310 311 312 313 314 314 314 314 314 315 315 316 318 319 320 321 322 323 325 328 326 324 329 332 329 329 331 330 332 335 335 335 336 334 333 336 338 339 338 336 334 338 344 348 350 351 353 355 354 353 354 354 354 355 356 356 357 357 357 357 358 358 358 356 355 352 350 347 346 345 344 345 346 347 347 347 348 348 349 348 347 345 343 341 340
309 310 311 311 312 313 313 313 314 314 314 315 315 317 319 320 320 321 323 324 326 326 327 330 331 331 330 331 334 337 337 336 335 336 336 338 342 344 344 342 338 335 337 340 346 349 349 350 351 350 350 352 354 354 355 356 356 357 356 357 357 357 357 357 356 354 352 350 347 347 346 345 345 345 346 347 348 347 348 348 347 346 346 344 343 343
309 310 311 311 312 313 313 314 314 314 315 315 315 316 318 319 320 321 321 323 324 325 327 329 329 329 328 334 341 341 338 336 335 338 343 347 349 350 350 347 345 347 347 345 344 347 348 350 352 351 350 349 350 352 355 355 355 356 356 357 358 357 357 357 353 352 350 348 348 347 347 345 345 345 345 346 346 347 347 348 348 347 347 346 345 345
309 309 310 310 311 312 313 314 314 314 315 315 315 316 317 318 320 320 321 324 325 326 330 329 327 328 332 338 342 342 339 336 336 341 348 352 354 355 355 354 354 355 355 356 354 351 347 349 354 353 348 345 348 351 353 354 356 356 355 356 357 357 357 357 354 351 349 349 348 347 347 347 346 345 345 345 346 347 347 347 347 347 347 346 346 346
309 309 309 309 310 311 312 313 315 315 316 316 317 317 318 319 320 320 324 332 334 332 331 330 329 333 338 338 339 341 341 343 344 347 351 354 355 356 354 356 357 357 358 360 361 359 353 347 350 352 347 343 347 350 350 352 354 353 353 354 356 357 357 358 356 353 350 349 348 347 347 347 347 346 345 346 346 346 347 347 347 348 347 347 347 347
309 309 309 310 310 311 312 314 316 317 316 318 320 320 320 320 320 321 329 335 336 333 332 333 334 337 336 335 337 340 342 345 350 350 352 354 355 355 355 356 357 358 359 360 361 363 358 348 346 350 350 345 344 346 349 352 352 353 354 354 356 356 357 357 356 354 350 349 348 347 347 347 347 347 346 346 346 346 346 347 347 347 347 347 347 348
309 309 309 309 310 311 312 314 317 318 318 320 324 325 323 321 320 326 331 333 332 332 332 333 334 333 333 334 336 339 341 344 348 350 351 352 354 354 355 355 356 358 359 360 361 362 360 351 343 345 353 352 347 348 354 355 354 355 355 354 354 355 355 355 354 352 351 348 347 347 347 347 348 347 347 347 346 346 346 347 348 348 348 348 348 348
309 309 309 309 310 310 311 313 316 319 319 323 326 326 326 327 327 331 332 331 329 330 331 331 332 331 332 335 337 338 341 344 346 349 349 351 353 353 353 354 355 357 358 359 360 362 361 355 345 342 350 354 352 352 354 355 355 355 356 354 352 353 353 352 352 351 349 347 347 347 347 348 348 348 348 347 347 347 347 347 348 348 348 348 348 348
310 309 309 309 310 310 311 313 316 317 319 323 325 326 327 329 329 331 333 331 327 327 328 328 329 328 329 332 335 338 342 345 346 349 350 350 350 350 350 352 354 355 357 358 360 361 359 354 347 344 349 354 354 352 354 356 355 355 356 355 353 352 352 351 351 349 347 347 347 347 346 348 348 347 348 348 348 347 347 347 348 347 348 348 348 348
309 309 310 309 310 311 311 314 316 317 319 322 325 325 326 328 328 328 333 331 326 325 327 327 326 326 326 328 332 337 343 346 347 347 348 345 345 347 348 350 352 355 356 357 360 360 354 350 349 348 351 355 354 352 355 356 356 356 355 354 352 351 350 349 349 347 347 347 347 347 347 347 348 348 348 348 348 347 347 348 348 347 348 348 348 348
309 309 309 309 309 311 312 313 315 317 321 325 325 324 325 328 328 328 333 332 326 324 326 325 324 324 323 324 329 337 344 348 347 346 342 339 341 343 346 349 352 354 355 357 359 358 352 350 351 350 353 356 353 353 356 356 355 356 354 352 351 351 349 349 347 346 347 347 347 347 348 347 348 348 347 347 347 347 348 347 348 347 347 347 347 348
311 310 309 308 310 311 312 313 315 317 322 324 322 322 325 327 327 330 335 332 325 323 324 323 323 323 321 323 327 332 337 340 340 336 333 334 338 341 345 349 352 353 355 356 358 357 353 353 353 353 354 354 353 356 357 356 355 355 352 350 351 350 348 347 346 347 347 347 347 348 348 348 347 347 347 347 347 347 348 348 348 348 348 347 348 348
312 310 309 309 310 310 311 313 314 317 322 322 321 323 324 326 330 333 332 328 323 321 321 321 322 321 320 321 325 326 326 327 327 326 328 332 336 339 344 348 351 352 354 355 356 356 355 355 355 354 353 354 355 357 356 356 355 354 351 349 349 348 347 347 347 347 348 347 348 348 348 348 347 347 347 348 347 348 348 348 348 349 348 349 350 350
312 311 309 309 310 310 311 312 314 317 320 320 320 322 323 327 332 330 325 322 321 320 320 320 320 320 319 320 322 323 322 322 322 323 326 330 334 338 343 347 349 350 353 354 356 356 357 356 355 354 355 356 356 356 355 354 353 350 349 348 347 346 347 348 347 348 348 348 348 348 348 348 348 347 348 347 348 348 348 348 349 350 351 351 352 352
312 311 311 310 310 310 311 312 314 318 319 318 320 322 322 324 325 322 320 321 320 319 319 319 318 318 319 319 319 320 320 320 321 322 325 329 333 337 341 345 347 349 351 354 354 355 357 359 357 355 356 358 357 356 356 353 350 348 347 345 346 347 349 348 347 347 348 348 349 348 348 348 348 348 348 348 348 348 348 349 350 351 352 353 353 355
312 312 312 312 311 311 312 314 316 317 317 317 318 319 318 318 317 317 318 320 319 318 319 318 317 317 317 318 318 318 318 319 319 320 323 328 333 336 340 344 347 348 350 353 354 355 357 359 359 357 356 357 357 356 357 355 351 347 347 346 346 348 349 348 348 349 348 349 348 349 349 348 348 348 348 348 349 349 349 350 350 351 352 353 355 358
311 311 311 312 314 314 314 315 315 315 315 315 317 317 316 316 315 315 316 317 317 318 318 318 318 317 317 317 318 318 317 317 318 319 321 325 330 335 338 343 346 348 350 352 354 356 357 357 359 360 358 357 357 357 357 356 352 347 348 349 349 348 350 350 349 349 349 349 349 349 349 349 348 349 349 350 350 350 351 352 351 352 353 353 357 361
310 311 311 311 312 313 313 314 314 314 314 315 315 316 315 315 315 315 315 315 316 316 317 318 318 318 317 318 319 319 318 317 317 318 319 323 329 334 337 342 347 348 350 352 353 355 357 357 358 360 360 359 359 359 359 358 356 351 350 351 350 348 350 351 350 350 349 349 349 349 349 349 350 349 349 350 350 351 351 352 353 353 353 355 360 362
309 310 311 311 310 311 313 314 314 314 314 314 315 315 315 315 316 315 314 315 315 315 317 317 317 317 318 317 318 319 319 317 317 317 318 322 328 332 335 339 345 348 349 350 351 353 356 357 358 358 359 360 361 361 361 361 360 357 353 351 352 351 350 350 350 349 349 349 349 349 349 350 351 352 352 351 351 353 353 352 355 356 354 355 360 364
309 310 310 309 309 310 313 314 313 313 314 316 316 316 316 316 316 315 314 314 315 315 316 317 317 317 317 317 318 319 319 318 317 316 317 320 325 330 333 336 342 347 348 348 349 351 352 354 357 357 357 359 360 361 362 362 362 362 358 353 352 353 351 349 349 349 350 350 350 350 350 350 351 355 357 355 354 358 360 358 358 360 359 357 360 363
308 310 310 309 310 311 313 313 312 313 315 317 316 316 315 315 314 314 314 314 314 315 316 317 317 317 317 316 317 319 319 319 318 317 318 320 323 327 331 334 339 344 348 347 347 347 348 350 354 355 357 358 358 359 361 361 361 361 359 353 352 353 351 349 349 350 349 350 350 349 351 351 351 355 360 362 361 362 364 364 363 364 364 363 362 363
308 309 309 309 311 312 312 311 311 312 314 314 314 314 314 314 314 314 315 314 315 315 316 316 317 317 316 315 317 319 319 319 318 317 318 321 323 325 328 333 336 340 346 347 345 345 346 347 349 351 354 356 358 358 359 359 359 359 358 355 355 356 353 350 350 350 351 351 352 353 354 354 354 357 361 365 367 365 362 363 363 364 364 365 365 365
307 308 308 309 310 311 310 310 310 310 311 312 312 313 313 313 314 314 314 315 315 315 315 316 317 317 315 315 317 318 318 318 318 318 318 320 322 323 326 331 334 336 340 344 345 345 345 345 345 348 350 352 355 357 358 359 359 359 360 360 360 359 355 351 349 352 355 355 355 355 356 355 357 360 362 364 368 368 365 362 363 363 363 365 366 366
Wind_Speed
16 11 11 13 14 16 17 17 16 11 5 7 9 10 13 12 11 14 13 8 8 10 13 15 14 13 16 15 14 15 16 17 17 17 19 21 22 23 24 24 25 26 25 25 27 30 30 29 29 29 29 29 30 30 32 36 39 39 39 38 37 37 36 35 34 33 31 30 28 26 24 22 19 18 18 17 16 14 13 14 13 11 11 10 9 9
15 12 14 16 16 15 15 16 16 14 10 7 8 7 11 12 10 13 13 8 7 9 10 13 15 14 15 14 11 13 14 15 17 18 19 22 23 23 25 25 25 24 23 24 26 30 30 30 30 30 29 30 32 33 35 38 40 40 39 39 38 38 37 36 35 34 33 31 29 27 25 22 19 19 19 17 16 15 15 15 13 12 12 10 9 9
12 13 16 17 15 13 13 15 16 16 13 10 8 7 8 9 9 10 9 6 6 8 9 11 12 12 14 14 13 13 13 14 17 19 20 22 23 23 24 24 25 24 24 26 28 30 32 31 31 30 30 32 33 35 38 40 41 41 40 39 39 38 38 37 36 35 34 32 30 27 25 23 18 17 19 17 17 16 16 16 14 13 13 11 10 9
10 12 17 16 14 14 13 12 15 14 11 10 9 8 8 8 10 10 9 9 9 8 10 12 11 10 12 14 15 15 15 16 17 19 20 22 24 23 23 24 25 26 27 28 29 31 32 32 33 32 32 32 32 34 38 41 42 42 42 41 40 39 38 38 37 37 34 32 31 28 27 25 19 17 20 19 18 17 16 17 17 15 14 12 11 10
10 9 13 16 15 15 14 12 13 12 9 12 13 11 9 9 10 9 5 7 9 10 12 12 9 8 11 14 14 14 15 16 16 18 20 21 22 21 21 22 24 26 28 29 30 31 32 33 34 34 33 33 34 35 38 41 42 43 43 42 41 40 39 38 38 37 35 33 32 30 29 28 24 23 23 21 19 18 18 18 18 17 16 13 13 12
13 7 8 15 15 14 15 13 14 12 8 11 14 15 13 10 10 10 6 5 7 10 13 13 11 8 12 16 15 12 13 15 15 16 19 20 20 20 21 23 25 26 28 29 31 32 33 33 33 33 33 34 35 37 39 40 41 42 42 42 41 40 39 39 38 37 36 35 34 32 32 31 29 27 25 23 21 19 19 18 17 17 17 15 14 13
11 10 9 13 15 16 17 13 14 14 10 8 10 14 17 14 11 10 9 8 7 7 10 13 12 9 10 16 17 15 14 15 15 15 17 20 20 22 23 23 25 27 27 28 30 31 32 33 33 34 35 35 35 36 38 39 40 41 41 42 41 41 40 39 38 38 36 35 34 33 33 33 31 29 26 25 22 20 19 18 17 17 18 17 15 14
11 14 12 14 15 15 14 12 13 15 11 8 7 10 16 18 15 12 10 9 8 8 6 10 11 10 9 12 15 17 18 17 16 15 15 18 22 23 24 24 26 28 28 29 30 31 33 34 36 36 37 37 35 34 36 38 39 40 41 41 41 40 40 39 39 38 36 36 32 30 33 34 32 30 27 25 23 21 20 20 19 19 19 18 17 16
12 16 14 14 14 12 11 12 14 16 13 10 6 5 11 16 18 16 11 9 8 9 9 10 12 10 9 10 11 14 17 17 17 17 15 18 22 24 24 25 26 27 28 29 30 32 34 35 36 37 37 37 34 33 35 38 40 40 40 40 39 40 39 39 39 37 37 35 28 27 32 34 33 31 28 26 24 23 21 21 21 21 21 20 19 18
9 14 16 14 12 11 10 10 12 15 13 11 8 5 8 12 15 16 12 9 9 10 12 13 13 10 9 11 11 11 13 15 15 15 14 18 22 24 24 24 24 25 27 28 29 32 34 35 36 35 34 34 33 33 33 35 38 40 41 40 39 40 39 39 38 36 37 33 26 28 31 31 33 32 30 28 26 25 23 22 22 22 22 22 20 19
9 10 12 13 12 12 12 11 11 13 13 12 11 9 9 9 10 11 11 9 10 12 14 16 16 13 11 10 11 12 11 13 14 13 13 17 20 22 23 23 23 25 27 28 29 30 32 33 33 33 33 33 34 32 32 33 35 40 42 41 40 39 38 38 37 36 36 31 27 29 27 29 34 33 31 31 29 27 25 23 23 23 23 23 21 20
15 11 8 10 13 14 13 12 11 12 13 12 10 9 8 8 8 8 9 10 11 12 13 16 18 16 13 10 10 11 12 14 15 14 14 15 18 21 21 22 23 26 27 27 28 28 30 31 32 33 33 34 34 33 33 34 35 39 43 41 40 39 38 38 36 36 35 29 27 27 25 29 33 31 32 32 30 29 26 25 25 24 25 24 22 21
14 14 11 10 13 15 13 11 10 11 12 11 10 9 9 8 8 8 9 10 11 11 11 15 17 16 15 12 11 13 12 13 14 15 15 15 17 20 21 22 23 24 25 26 27 28 30 32 33 34 35 35 36 36 36 35 34 38 42 42 41 40 39 38 36 36 33 28 27 26 25 28 30 30 32 31 30 30 28 26 26 26 26 25 23 23
10 13 16 14 11 14 15 11 9 10 11 12 11 10 10 9 8 10 10 9 10 11 12 15 15 14 13 13 15 16 13 11 12 14 15 15 15 17 18 21 21 22 25 25 27 29 31 33 34 35 36 37 38 38 38 38 37 37 41 43 42 40 40 38 37 36 32 29 28 25 24 26 28 30 32 31 31 30 29 28 27 26 27 25 24 23
9 9 14 16 12 14 18 14 11 10 10 12 12 10 11 9 8 8 8 9 10 9 13 16 13 11 10 8 10 16 17 17 15 13 13 13 14 14 15 18 20 21 24 26 28 30 31 34 35 36 37 37 38 39 39 39 39 39 42 44 43 41 41 40 39 37 34 31 28 25 24 25 27 29 30 30 31 30 29 29 27 27 27 26 25 23
11 7 4 9 10 13 18 16 14 12 9 10 11 11 12 10 8 7 6 8 8 8 10 13 9 7 6 4 4 9 14 19 20 20 20 18 17 17 15 17 19 21 24 26 27 29 31 33 34 36 37 38 39 40 40 40 41 42 43 45 44 42 42 41 40 39 36 30 27 26 25 25 26 27 26 28 31 30 29 28 27 26 26 26 25 24
9 6 5 3 7 12 15 16 16 14 9 8 11 12 11 11 10 8 8 8 8 9 8 9 9 8 7 7 8 10 11 13 17 19 21 23 23 22 20 19 19 21 23 26 28 30 31 32 34 36 38 38 40 41 42 42 43 44 45 45 44 42 42 42 41 40 37 31 28 28 26 26 26 25 25 28 30 29 29 29 27 26 26 26 25 24
4 6 1 3 11 10 7 10 14 16 13 8 10 12 10 11 11 8 8 8 9 10 7 8 12 11 9 8 10 16 17 15 15 14 16 20 22 23 23 23 23 22 23 26 29 29 30 32 35 36 36 38 41 42 43 44 44 44 45 45 44 43 43 43 42 41 39 35 34 33 30 29 28 27 27 28 29 30 30 29 28 27 26 26 25 24
4 8 6 7 11 8 6 10 12 15 18 15 9 10 11 11 11 9 8 8 10 10 8 10 13 12 10 7 7 14 19 19 18 16 16 18 19 20 21 23 25 25 24 25 27 28 30 33 35 36 37 37 39 40 41 43 44 44 44 43 43 43 43 42 42 41 40 39 37 36 33 31 30 29 28 27 27 29 30 30 29 28 26 26 25 25
4 7 6 8 9 6 7 11 10 11 17 17 13 10 12 10 9 9 8 8 9 9 8 10 11 9 9 9 8 9 13 17 18 16 15 17 19 20 20 22 24 25 25 26 27 28 31 33 35 37 38 38 38 39 40 41 43 43 43 43 43 42 42 42 42 42 41 40 38 37 35 33 32 30 29 27 26 28 31 30 29 28 27 26 26 25
4 5 6 7 8 6 8 11 13 13 13 14 13 12 11 11 10 10 9 9 9 8 7 7 8 7 5 8 11 9 8 10 13 13 13 15 18 20 20 21 22 23 25 26 27 29 31 33 35 36 36 36 35 36 36 38 40 41 41 42 42 42 42 42 43 42 42 41 40 39 38 36 35 32 29 29 29 30 31 30 29 29 28 27 27 26
3 5 8 8 7 9 11 9 10 12 9 9 13 14 14 12 11 10 10 11 10 9 8 6 7 5 3 4 8 9 9 9 11 12 12 14 18 20 20 21 21 22 25 26 28 29 30 32 34 34 33 33 33 35 36 37 38 39 41 42 42 42 43 43 43 43 42 41 41 40 39 37 36 34 31 30 30 31 31 30 29 29 28 28 28 27
5 5 7 9 8 11 12 7 6 8 8 9 9 12 15 15 13 12 11 10 10 11 10 8 8 5 3 4 4 5 7 9 11 12 12 15 18 19 21 22 22 23 24 26 27 28 29 30 31 31 32 34 35 36 37 37 38 40 41 40 41 42 43 43 42 43 42 41 41 40 39 38 37 35 33 31 31 31 30 30 29 28 28 28 28 28
5 5 8 9 9 12 16 14 9 7 7 9 9 9 11 13 12 10 7 5 7 11 10 8 8 7 3 3 3 3 4 6 8 9 10 12 14 15 17 18 21 24 25 25 26 26 25 25 27 30 33 35 36 36 36 37 37 38 38 38 40 42 43 42 41 42 43 42 41 40 38 38 37 36 34 33 32 32 30 29 28 28 28 28 28 28
5 5 7 8 8 9 12 13 11 8 7 10 13 9 8 9 8 7 5 4 5 10 11 10 8 6 4 5 6 7 9 10 9 9 10 10 11 12 11 9 11 17 19 20 21 21 22 24 27 32 35 37 38 37 37 38 38 37 38 39 39 39 40 40 40 41 43 42 41 40 39 38 37 36 36 34 33 33 31 29 29 29 29 28 28 28
6 5 5 7 9 9 8 8 7 6 6 11 12 9 7 9 9 8 8 8 8 10 11 10 8 5 4 6 6 7 9 10 10 10 10 10 10 11 10 7 7 10 12 14 16 18 21 24 27 31 34 37 38 36 37 38 38 37 38 39 38 37 38 40 39 40 42 42 41 41 40 39 38 38 37 36 34 33 32 30 29 29 30 29 29 29
6 7 8 10 12 10 7 6 7 7 7 9 10 9 9 8 8 8 10 12 10 9 11 11 10 9 5 5 5 4 6 8 9 9 8 7 8 7 6 6 8 10 12 13 16 18 21 23 26 30 34 36 36 35 36 37 37 37 37 38 37 36 37 39 39 40 42 42 41 41 41 40 40 39 37 37 35 34 32 31 30 30 30 30 29 29
5 8 11 14 16 17 15 14 12 10 10 10 8 8 8 7 8 11 14 15 10 8 12 13 11 13 10 6 3 1 3 5 5 5 4 3 3 2 1 2 5 7 10 13 17 20 23 25 27 31 34 35 34 34 35 35 36 36 36 37 36 36 37 39 40 42 43 43 42 42 43 42 41 40 38 37 36 35 33 32 32 31 31 30 30 30
6 8 11 13 17 19 18 16 14 12 11 12 12 11 9 8 10 12 15 16 11 8 9 8 7 10 11 9 7 6 8 9 9 10 11 9 7 6 5 5 6 6 8 13 18 22 24 27 29 32 35 35 34 35 34 34 35 35 36 37 37 36 37 39 41 42 43 44 44 43 43 43 42 40 39 38 37 36 36 35 34 33 32 31 30 30
6 7 10 12 14 18 19 17 15 14 13 14 14 14 13 11 12 12 13 14 13 11 10 8 9 10 9 7 9 11 14 16 15 15 14 11 9 10 9 9 9 8 6 8 14 20 23 26 29 33 35 36 35 36 35 34 36 37 37 37 38 38 38 39 41 43 44 45 45 44 43 43 42 41 40 40 38 37 37 36 35 34 33 31 30 30
6 6 9 10 10 14 18 17 16 15 15 15 16 16 15 14 13 13 12 12 13 13 11 10 11 12 10 7 10 12 15 16 16 16 14 11 11 12 12 13 12 11 9 7 8 14 19 23 27 31 34 37 38 38 37 37 38 39 37 37 39 39 39 41 43 45 45 45 45 45 44 43 42 42 41 41 40 38 37 37 36 35 33 32 31 31
6 7 9 9 8 11 14 15 16 15 15 17 18 17 17 15 12 12 11 11 13 13 12 12 12 10 8 8 10 10 12 14 14 14 13 12 13 14 15 16 15 15 15 13 10 10 14 19 24 28 32 36 38 39 40 39 38 39 39 40 41 40 39 40 43 46 45 45 45 44 43 42 42 42 42 42 41 39 38 37 36 36 35 34 33 33
7 7 7 7 8 9 12 14 14 12 13 14 14 16 18 16 13 13 11 6 6 9 10 10 7 3 5 9 9 9 10 11 12 12 13 14 14 15 16 17 18 19 19 18 17 15 15 18 21 26 31 34 37 39 41 42 41 42 43 42 41 39 38 39 42 45 45 45 44 43 42 42 42 42 43 43 42 40 39 38 37 37 36 35 34 34
9 9 7 7 7 9 12 13 10 12 14 10 7 11 17 18 18 15 9 5 3 4 5 6 5 5 8 9 10 10 11 13 14 13 12 12 14 16 17 19 20 21 21 21 20 18 18 19 21 26 30 33 36 38 39 40 40 40 40 40 39 39 39 39 41 44 45 44 43 42 41 41 42 42 43 43 43 42 41 39 39 38 36 35 35 35
10 9 7 7 7 8 10 9 9 13 12 5 2 6 11 16 16 9 7 5 2 2 4 6 7 7 9 10 11 12 14 16 17 17 14 11 12 15 18 20 20 21 22 22 22 22 20 19 22 26 29 33 34 35 36 36 36 35 37 40 41 41 41 42 42 43 44 43 42 41 41 41 41 42 42 43 43 42 41 40 39 38 36 35 35 35
11 9 7 6 7 7 8 8 9 9 7 5 4 4 4 8 11 12 9 4 1 1 3 5 6 7 10 12 13 13 14 16 17 18 15 10 11 14 17 20 21 22 24 24 24 26 24 21 22 25 28 31 31 32 35 36 36 34 35 39 41 42 42 43 43 43 43 42 41 40 40 40 40 41 41 41 41 41 41 40 39 38 37 36 36 36
12 10 7 7 8 7 8 8 8 9 9 8 7 4 2 3 6 7 5 3 3 2 2 3 4 7 10 12 14 15 13 13 15 14 7 6 11 14 16 19 21 22 24 25 25 26 25 22 22 23 26 27 29 32 33 34 35 34 34 37 41 42 43 43 44 44 42 41 40 40 39 39 39 40 40 41 41 41 41 40 39 38 37 36 36 35
14 12 10 9 8 7 8 8 8 10 10 6 4 1 1 1 1 2 3 4 2 2 3 4 5 7 10 13 17 17 12 11 10 6 5 15 17 16 18 19 20 21 23 23 24 24 22 20 19 21 23 26 29 32 33 33 34 35 37 39 42 43 44 44 44 43 41 40 40 39 38 37 37 38 39 40 41 40 40 39 38 37 36 35 34 34
16 13 11 10 8 8 8 7 7 9 6 3 3 2 2 2 2 3 6 4 0 3 5 5 6 9 11 13 16 14 7 8 6 4 16 24 22 19 20 19 18 20 20 20 21 20 17 16 17 19 22 26 29 32 33 35 36 36 38 41 41 42 44 44 43 41 40 39 38 38 37 36 36 36 37 38 39 39 39 38 37 36 35 35 34 34
14 12 10 11 10 9 10 8 7 8 3 3 6 7 6 4 2 6 8 4 2 4 6 7 8 11 13 14 12 9 4 2 6 14 23 26 22 20 19 17 16 18 18 18 18 15 12 12 15 19 23 27 30 32 33 35 36 36 39 40 40 41 41 41 40 39 38 38 38 38 37 36 36 35 36 36 37 37 37 37 36 36 35 35 34 34
11 10 10 12 11 10 11 9 7 7 1 6 10 10 7 4 6 8 5 2 5 6 7 9 9 11 14 14 11 8 8 10 13 20 23 23 21 20 16 13 13 14 15 16 15 10 7 10 15 19 21 26 30 32 33 35 36 36 38 40 40 39 39 38 38 38 38 38 38 37 36 35 34 34 34 35 34 34 35 35 34 35 35 34 33 32
9 9 9 11 11 9 9 8 8 6 3 12 14 9 5 4 6 4 1 5 8 8 8 9 11 12 14 15 12 11 14 16 18 21 22 21 21 20 16 12 12 12 13 14 11 6 3 8 14 18 20 24 29 32 33 35 36 37 38 39 39 37 36 36 35 36 36 37 36 36 35 34 33 32 32 33 32 32 32 32 32 33 33 32 31 31
6 6 8 10 9 8 9 8 8 5 6 17 17 7 3 2 0 3 3 5 8 10 9 10 12 13 14 15 15 15 17 18 20 22 22 20 20 20 17 14 13 13 13 13 10 6 2 5 11 15 19 22 26 29 31 33 36 37 37 37 36 35 34 34 33 34 35 36 36 35 34 33 32 30 30 31 31 31 31 31 31 33 32 30 30 28
0 1 4 6 6 7 9 6 3 3 7 14 12 4 4 5 6 8 7 5 7 9 8 9 11 13 14 16 16 18 19 19 22 26 25 22 21 22 20 18 16 15 15 14 11 7 3 2 7 11 15 19 23 25 27 30 34 36 36 35 34 34 33 33 33 34 35 35 35 34 33 31 29 28 28 29 29 29 29 29 29 30 30 28 26 23
3 2 2 4 3 5 5 3 4 8 10 10 8 4 3 3 5 9 9 6 6 7 7 8 10 13 15 15 16 19 20 21 23 27 28 24 22 23 23 20 19 18 17 15 13 9 5 1 5 8 9 13 18 21 23 27 31 34 35 34 33 32 33 33 33 34 34 34 33 32 32 30 28 27 27 27 27 27 27 27 27 28 28 27 23 19
6 5 3 3 3 6 7 6 7 10 12 10 5 1 1 1 4 8 10 9 8 8 8 8 9 12 14 15 15 18 21 23 24 27 29 27 23 24 24 22 21 20 20 20 18 14 9 3 4 6 8 10 12 14 17 20 25 30 32 31 30 31 32 32 33 33 32 32 32 31 30 29 28 27 26 26 26 25 25 26 26 26 27 25 22 19
4 5 4 3 3 4 3 2 4 11 15 10 6 3 2 4 5 9 11 12 11 11 10 9 9 11 13 14 15 16 18 22 25 28 31 30 26 25 25 24 22 20 21 23 21 17 14 9 7 6 8 8 8 9 11 13 16 21 27 29 28 28 31 32 31 31 30 30 30 30 30 29 28 26 25 25 25 24 24 25 25 25 27 27 24 21
5 6 5 3 3 4 5 4 9 16 13 8 7 4 6 8 10 12 12 12 12 13 12 11 10 11 12 14 15 16 17 20 24 29 31 30 28 26 25 26 24 20 19 21 21 20 18 15 12 11 9 8 8 8 9 10 11 14 20 26 26 25 28 31 30 29 29 29 30 30 29 28 27 26 25 25 26 25 24 25 26 26 26 28 27 25
8 7 6 4 5 5 6 6 13 13 5 5 3 6 10 13 15 15 13 12 13 14 14 13 11 11 12 13 15 16 17 20 23 27 27 27 29 28 26 26 26 22 19 19 21 22 21 19 16 14 12 11 10 9 8 9 9 10 14 22 24 23 26 28 29 28 28 28 28 28 27 28 27 26 24 23 23 25 25 25 26 26 24 24 26 26
7 5 5 5 4 3 3 7 11 9 5 6 11 14 15 17 17 16 15 13 13 14 15 15 14 13 11 12 13 15 17 20 23 25 25 24 27 29 27 26 28 26 22 19 19 22 23 21 18 16 15 14 11 9 9 9 8 8 11 16 18 19 22 25 26 27 26 27 28 28 26 27 27 25 24 21 21 24 28 29 28 27 25 24 24 25
7 5 6 6 4 5 8 12 13 10 10 13 17 18 18 17 17 16 15 14 13 13 14 14 15 14 11 10 12 13 16 19 21 23 24 23 24 27 27 26 26 28 26 22 20 20 22 22 20 18 16 15 13 12 12 11 11 9 10 12 12 13 18 22 24 25 24 25 27 26 25 26 26 25 25 22 20 23 27 29 29 28 26 26 26 25
Wind_Direction
190 199 205 209 210 206 206 209 219 226 236 248 230 216 220 221 218 215 210 182 192 223 222 225 224 208 220 220 195 192 196 201 203 199 195 193 191 189 190 193 192 194 195 191 190 190 190 191 190 190 190 192 194 197 202 207 210 210 210 212 211 211 212 213 214 214 214 214 214 212 212 215 216 216 217 217 218 219 222 225 222 220 218 214 212 212
193 212 213 211 214 211 209 210 219 229 229 243 246 224 221 225 220 217 213 192 197 232 229 224 234 226 222 230 213 195 198 203 204 201 198 195 194 193 194 194 192 192 191 189 189 190 191 191 191 191 191 193 196 200 205 210 213 214 213 215 216 214 215 216 216 217 217 218 218 218 217 217 218 221 220 220 223 222 227 232 226 226 227 217 214 215
199 221 219 211 213 215 215 212 214 225 230 234 241 233 225 221 223 223 209 194 206 230 236 226 233 238 228 232 232 213 205 207 208 206 202 198 196 196 196 193 191 189 188 189 188 189 191 191 191 191 193 196 199 204 209 213 216 216 216 217 218 218 218 218 218 220 220 221 222 222 223 220 216 223 225 222 225 226 229 236 232 231 233 224 217 216
203 219 218 210 207 212 214 210 208 215 226 231 232 235 233 218 221 227 202 200 221 232 242 241 239 240 228 225 231 224 212 208 210 212 208 203 201 199 197 194 191 189 188 189 189 189 190 190 191 192 194 196 198 203 211 215 217 218 218 218 219 221 221 221 221 222 222 223 225 225 226 225 216 221 228 226 229 230 230 236 236 232 234 229 221 218
216 214 214 210 204 206 205 200 204 212 221 227 230 234 234 222 224 238 212 195 221 231 239 248 250 244 231 223 222 219 214 212 212 212 209 207 205 203 199 197 195 193 191 189 189 190 190 191 192 193 194 196 198 203 210 216 218 219 220 219 220 221 222 223 223 223 224 226 228 228 228 228 222 223 231 232 231 232 231 233 236 236 234 231 226 220
224 213 198 201 197 199 207 207 208 214 223 224 225 229 236 237 230 236 245 221 222 224 220 226 241 243 228 226 225 216 210 212 211 208 207 205 202 200 200 198 197 197 195 192 191 190 191 192 192 193 195 197 199 204 211 217 219 220 221 221 221 222 223 224 224 225 227 228 230 230 230 229 227 228 232 234 231 232 233 231 233 237 236 233 230 225
226 211 183 190 195 199 212 218 210 211 227 230 214 219 229 240 241 236 240 233 234 236 206 204 232 248 226 223 224 219 215 210 206 205 204 201 198 199 201 199 198 198 196 195 194 192 191 191 192 194 196 198 200 204 210 215 219 221 222 222 222 222 223 224 225 226 228 230 232 232 231 231 232 232 233 235 232 230 234 232 229 234 237 235 232 229
218 212 187 191 205 203 211 218 206 204 221 233 209 210 222 230 236 238 243 239 242 258 220 192 225 249 239 225 219 217 217 211 205 204 201 199 199 201 202 201 199 198 195 193 193 193 193 193 194 196 199 201 201 202 207 213 218 221 223 223 222 222 223 224 225 226 228 231 230 229 232 234 234 233 234 236 234 233 237 237 233 233 237 236 232 229
198 217 204 197 211 209 210 215 208 206 219 231 222 221 224 226 231 234 243 247 244 255 243 209 215 236 243 232 222 220 218 212 209 209 204 200 201 202 204 204 202 199 196 194 193 194 194 195 196 197 200 202 200 200 205 211 216 220 223 224 223 223 223 224 225 226 229 229 224 226 232 233 233 233 234 236 236 236 237 238 237 235 237 238 234 230
189 218 214 205 214 216 213 211 211 211 219 230 225 225 231 227 230 230 235 246 245 248 245 225 214 227 244 230 219 219 216 212 212 213 208 204 203 202 203 206 202 198 198 197 196 196 196 197 198 198 198 199 199 200 203 207 212 219 222 223 222 222 222 223 224 225 228 226 221 226 229 230 232 232 232 234 235 235 235 236 237 236 236 238 237 233
227 216 213 214 219 225 223 215 218 217 219 229 223 218 225 222 224 226 227 237 243 241 239 233 225 231 247 234 219 216 212 214 217 213 208 207 204 201 203 205 201 197 198 198 198 198 198 198 197 197 196 197 198 198 199 201 206 216 221 222 222 221 221 222 222 224 228 226 222 224 224 227 232 231 231 232 233 235 234 234 235 236 236 236 236 234
235 223 212 215 215 224 231 221 219 215 215 227 221 212 219 213 208 217 218 221 235 239 233 233 232 234 242 235 223 219 208 212 222 217 208 205 203 199 201 204 201 199 197 196 197 197 196 196 195 195 195 196 196 195 197 199 202 212 219 222 221 220 220 221 221 223 225 222 220 221 221 226 229 229 231 231 232 234 234 234 235 235 235 235 234 232
229 229 220 215 208 214 224 219 213 209 212 220 212 207 213 205 195 205 210 212 229 237 228 229 230 232 242 241 232 231 218 210 220 221 213 206 203 201 199 201 201 199 196 195 196 195 195 195 194 194 194 194 195 196 198 199 200 208 217 221 221 219 219 219 219 222 221 216 217 219 218 223 225 226 230 231 231 233 233 234 234 233 234 235 234 232
220 223 218 219 208 204 213 215 208 203 205 211 205 204 209 201 195 204 209 215 230 233 222 224 232 236 243 242 232 232 231 221 216 216 214 211 211 208 201 200 200 197 196 196 195 196 196 195 193 193 193 193 195 198 199 200 201 206 215 220 220 219 218 217 218 220 219 215 216 216 215 220 223 224 228 229 230 231 231 233 232 231 233 235 236 235
230 222 210 212 202 197 208 218 222 213 205 207 207 211 216 213 209 209 210 214 226 233 216 211 224 238 238 238 230 227 228 226 221 214 213 216 217 214 206 202 200 197 197 196 197 198 197 196 193 193 194 194 196 199 199 200 203 207 214 220 219 218 218 217 217 219 218 216 214 214 214 217 221 223 225 226 228 229 229 231 231 230 231 234 237 237
247 247 181 197 201 196 204 213 221 224 214 200 203 215 218 219 225 231 236 233 236 245 222 204 211 233 236 232 220 222 225 223 224 225 225 224 220 217 215 209 202 199 198 197 198 200 199 197 194 193 195 195 197 200 200 200 204 208 214 219 219 217 216 216 216 218 218 215 211 212 212 214 219 221 223 224 225 227 228 229 229 229 229 231 235 237
248 239 88 122 202 201 211 213 209 219 225 193 197 216 218 220 231 239 244 245 249 249 230 206 213 222 235 237 215 218 229 222 221 225 226 225 221 220 222 216 207 202 199 198 200 201 199 197 195 196 196 195 198 202 203 204 209 212 216 219 219 216 216 216 215 217 218 214 213 214 213 214 217 218 220 223 224 225 226 228 228 228 228 228 231 235
293 269 335 216 211 198 214 224 211 220 235 221 201 204 208 222 231 237 241 228 227 239 227 211 221 218 220 231 213 214 224 224 221 221 220 221 221 221 223 217 210 207 203 202 203 201 198 197 197 198 197 198 201 204 205 208 212 215 218 220 218 215 215 216 215 216 217 216 218 220 218 217 218 219 221 222 224 225 226 227 227 227 227 227 228 231
324 279 263 229 218 195 185 217 222 221 229 243 244 207 197 215 219 215 231 227 221 234 230 220 229 228 221 222 207 211 219 222 222 221 220 220 219 219 219 213 210 209 206 204 204 201 199 199 199 199 199 200 201 202 205 209 212 215 218 220 219 216 215 215 215 215 217 217 218 220 221 219 218 220 221 221 222 225 225 226 227 227 226 227 227 228
305 271 251 207 204 204 195 208 221 214 214 233 256 238 211 216 218 210 220 232 232 238 235 222 225 229 226 226 225 218 215 218 220 219 220 221 221 218 213 211 211 208 205 204 203 202 201 201 201 202 202 199 198 199 200 204 210 213 215 218 219 218 217 215 215 215 216 216 216 218 220 219 219 220 221 220 220 222 225 226 227 228 227 227 228 228
276 260 257 212 191 215 221 212 220 219 208 213 226 230 221 215 215 217 221 226 232 241 239 227 226 226 214 217 225 220 208 214 219 222 222 219 220 217 211 212 212 207 204 203 203 203 203 203 203 203 202 198 196 197 196 199 204 207 210 215 217 217 216 215 214 215 215 215 215 216 218 220 221 221 220 221 222 223 225 226 226 228 228 227 228 228
283 258 256 242 220 221 217 212 230 239 241 231 218 216 221 221 214 219 225 220 225 238 239 237 240 232 165 177 210 214 215 221 222 225 229 224 222 221 216 216 212 206 205 204 204 205 204 204 203 200 198 196 194 195 196 197 199 202 207 212 214 215 215 214 214 214 215 215 215 216 217 219 222 222 221 221 222 223 224 225 225 226 227 227 227 226
329 283 256 249 252 254 250 263 290 284 285 277 244 221 220 220 216 221 226 220 222 230 233 243 249 235 131 127 174 198 214 227 227 229 234 231 228 226 222 219 213 206 207 209 209 208 206 203 200 196 194 194 195 196 196 195 196 200 204 206 209 213 214 213 212 213 214 214 215 216 216 218 220 221 221 220 220 222 223 224 224 224 224 225 226 226
331 260 246 247 254 268 271 273 274 273 273 259 243 232 227 225 226 233 244 252 238 225 219 226 238 234 201 179 207 229 237 243 240 240 244 240 238 236 230 223 215 208 208 213 214 210 206 199 194 193 193 194 195 195 195 196 197 199 199 200 205 210 211 209 208 212 215 214 214 216 216 216 218 219 219 218 219 221 221 222 223 223 222 222 224 226
321 253 247 248 240 237 245 244 233 227 240 237 229 227 232 240 250 256 260 270 253 238 230 225 226 228 214 200 214 234 245 250 247 244 244 242 243 246 246 238 218 208 209 215 215 209 202 195 192 193 192 193 194 194 195 196 196 197 197 199 202 203 204 205 205 209 215 215 213 214 215 215 216 217 218 217 218 219 219 220 223 224 223 220 222 224
286 271 269 253 237 220 213 223 229 232 234 228 226 225 227 235 243 246 242 234 230 238 242 236 232 223 188 182 198 224 242 248 249 248 245 242 243 246 248 240 212 204 210 215 212 205 199 196 193 192 192 194 195 195 195 196 196 197 197 198 199 198 199 201 202 206 213 215 214 214 214 214 215 216 216 215 216 217 218 218 220 224 224 221 220 222
267 265 265 261 258 261 276 299 316 319 292 243 223 219 218 221 232 239 237 232 230 236 236 233 244 250 224 179 180 212 239 240 242 247 243 239 242 240 233 222 210 211 216 213 207 203 199 197 195 194 197 198 197 195 197 197 197 197 196 197 197 195 196 198 199 204 212 216 214 213 214 213 213 214 215 215 214 216 218 218 218 222 225 222 221 222
268 259 255 259 264 270 281 291 297 299 291 277 263 243 223 212 220 226 229 231 235 245 235 225 235 247 245 236 223 254 296 267 266 290 307 303 287 282 261 235 232 224 212 202 200 199 198 198 196 198 202 201 197 196 198 198 198 197 196 195 194 194 195 198 201 206 212 215 214 214 214 213 212 213 214 214 214 215 217 218 218 221 225 224 223 223
271 265 261 264 269 274 279 282 283 279 273 275 276 268 251 230 222 224 228 230 231 241 244 243 256 252 245 255 279 333 342 325 327 334 328 322 320 323 322 297 275 249 215 200 197 198 200 200 201 205 208 205 198 197 198 198 197 197 196 195 194 194 195 197 201 206 211 215 216 215 214 213 213 213 214 215 214 215 217 219 220 222 225 225 224 223
265 266 270 272 275 280 280 276 272 268 266 267 266 263 259 249 236 229 231 233 235 243 250 266 292 281 257 274 312 326 324 320 323 324 318 317 325 329 322 306 295 287 263 222 206 205 207 208 209 213 214 209 202 198 197 197 197 197 197 196 195 194 194 198 204 209 213 217 218 217 215 213 213 213 214 215 215 215 216 219 221 222 223 224 224 223
258 268 283 287 284 281 280 276 266 257 257 261 262 260 256 248 239 233 231 229 233 238 239 245 265 268 263 305 332 317 308 309 311 314 320 330 338 334 324 314 310 309 308 293 245 223 218 215 213 214 215 214 211 203 198 199 199 198 197 196 195 194 195 200 208 213 216 218 218 218 217 215 213 214 215 216 217 216 216 218 221 222 223 223 224 225
253 270 282 284 279 274 274 270 260 253 252 253 254 252 247 242 236 231 227 228 233 231 224 225 235 246 269 322 334 312 299 294 291 304 321 332 338 335 326 321 319 317 315 311 300 268 242 227 216 214 219 220 215 207 202 200 199 198 198 200 198 195 194 199 208 214 217 217 218 219 218 216 214 214 215 217 217 217 216 218 220 222 223 223 224 225
252 265 274 273 271 272 271 264 258 253 249 245 244 242 238 236 236 229 218 214 233 230 223 224 229 265 324 333 329 320 313 300 293 306 321 328 332 329 322 319 317 316 314 310 305 292 270 250 229 223 228 224 215 210 208 205 203 204 204 203 200 195 193 197 205 213 216 217 218 219 218 217 215 215 216 217 218 217 217 218 219 221 223 224 225 227
251 251 256 264 266 270 273 270 259 244 238 237 243 239 231 226 227 224 206 168 176 226 250 268 290 328 336 325 317 317 312 304 301 300 303 317 327 324 319 317 314 312 310 306 302 296 283 267 244 230 230 230 223 216 210 205 205 205 203 201 199 194 194 198 205 213 217 217 218 219 218 217 217 217 218 219 219 219 218 218 220 222 223 225 228 230
247 245 247 253 255 266 276 271 252 239 231 221 256 252 241 228 213 180 117 106 153 242 281 283 287 309 319 309 307 308 297 292 293 287 283 299 320 319 315 312 310 309 306 303 301 296 288 271 250 233 226 226 222 211 202 199 201 199 198 202 203 199 199 204 208 213 218 219 219 219 218 218 218 219 220 221 221 221 221 221 222 223 225 226 229 232
240 240 242 248 248 256 261 247 244 248 232 198 204 225 245 223 184 143 113 95 66 308 281 280 282 301 310 306 308 306 290 283 282 273 270 287 309 313 311 307 307 306 302 301 299 295 287 270 251 237 226 220 213 203 198 196 196 194 194 201 205 203 204 209 211 214 219 220 219 218 217 217 218 219 221 222 223 224 224 224 224 225 226 227 230 233
232 235 234 241 241 244 250 246 252 263 247 219 205 202 232 216 174 158 151 112 54 6 327 317 308 316 322 321 320 310 290 280 271 255 258 325 325 316 312 306 303 302 301 300 297 292 284 268 249 235 223 213 204 199 197 194 190 188 190 197 204 206 208 211 213 217 221 220 219 218 217 217 218 219 220 222 224 224 224 225 226 226 226 227 229 233
223 228 227 230 233 235 249 254 252 254 243 209 164 153 283 307 309 243 185 141 86 9 17 7 346 348 344 334 328 316 289 260 245 231 8 355 338 327 321 310 302 301 301 300 298 293 281 260 241 228 215 205 198 195 193 188 184 185 191 200 206 207 209 213 216 219 221 220 219 218 217 217 218 219 220 222 223 224 224 225 226 226 226 227 228 231
218 221 224 233 238 232 237 242 242 246 236 128 71 10 351 2 337 253 214 194 120 19 24 13 4 7 354 337 333 326 284 233 231 345 354 343 334 329 322 312 304 302 302 302 301 297 280 252 232 218 206 197 193 190 186 183 182 186 195 203 206 207 211 215 217 219 219 219 219 218 218 218 218 219 220 222 222 223 224 225 225 226 226 227 228 230
213 212 216 225 232 234 236 236 241 244 229 50 355 331 336 338 282 218 215 204 65 33 25 21 20 13 357 346 352 2 0 294 307 328 333 331 331 328 320 312 309 306 307 308 304 295 275 243 220 207 200 194 189 184 183 182 183 189 199 204 206 208 212 216 217 218 219 219 218 219 219 219 218 218 220 222 223 224 225 226 227 228 229 230 230 232
210 209 212 217 222 231 234 235 247 250 283 11 337 328 336 301 220 201 206 114 62 43 35 30 23 17 5 359 11 17 355 335 323 321 327 334 337 332 324 322 320 314 315 319 314 300 270 232 214 204 197 192 187 183 182 182 184 192 201 206 208 211 214 216 216 217 219 219 218 219 219 220 220 220 221 224 225 226 227 228 229 231 233 233 233 234
204 203 209 216 220 224 225 233 253 252 16 2 335 328 341 284 210 183 61 68 60 42 43 38 24 18 7 0 4 355 336 333 331 329 333 342 344 337 334 343 344 336 335 335 331 327 275 227 217 207 196 189 187 186 185 188 192 198 204 208 211 212 212 213 215 217 218 217 216 217 219 220 221 221 223 225 226 227 228 229 230 232 233 233 234 235
198 203 206 212 216 221 219 223 239 241 5 353 335 326 355 335 318 5 6 82 64 33 32 33 20 11 360 352 353 347 338 338 340 340 343 349 349 345 352 7 7 358 357 352 346 356 354 229 216 204 195 190 188 187 188 192 199 203 207 210 211 210 209 211 214 216 216 216 215 216 217 219 220 220 221 223 225 226 227 227 228 230 231 231 232 233
2 232 219 217 217 221 215 207 239 287 340 346 343 8 55 48 43 13 3 57 56 24 18 16 8 5 359 352 348 346 344 342 345 352 356 354 352 355 7 22 23 18 17 9 2 21 40 235 206 196 197 194 189 188 189 194 201 206 208 210 209 206 207 211 214 215 215 215 215 215 216 217 218 218 219 221 223 224 225 226 227 230 231 232 231 228
345 340 250 238 249 263 255 257 309 317 327 337 346 14 42 48 41 19 13 23 18 5 1 354 353 356 354 351 349 350 352 348 347 356 360 355 352 359 9 24 32 33 34 28 22 40 61 145 176 172 180 183 184 187 188 194 204 209 208 207 207 206 206 209 212 215 215 215 213 213 214 215 216 217 218 220 221 222 222 224 226 228 229 230 226 220
303 313 292 263 293 311 298 272 274 302 318 318 306 319 1 333 5 7 0 349 339 336 332 332 344 349 347 349 349 349 353 352 349 355 1 360 0 4 11 25 37 42 48 45 37 42 55 82 142 149 154 157 167 180 186 193 204 210 208 206 207 207 206 208 212 214 214 214 213 212 212 213 214 216 217 218 220 221 222 223 225 226 227 225 220 214
311 326 325 302 314 325 309 250 281 309 312 297 250 227 290 302 324 340 338 328 321 317 312 315 333 342 345 351 349 344 351 355 354 359 4 4 4 5 9 22 35 43 49 49 46 50 59 70 88 117 139 142 146 164 176 185 196 204 208 208 207 206 208 211 214 215 214 214 213 212 211 211 212 213 214 216 218 218 221 223 223 225 227 224 216 210
318 328 330 312 306 291 263 280 320 316 300 256 214 236 296 311 318 323 322 318 314 311 308 308 318 330 338 347 348 345 349 353 356 2 5 4 5 5 8 20 33 43 49 50 53 57 60 66 76 89 107 120 132 149 162 172 181 192 204 208 206 206 210 213 214 214 215 214 213 213 212 211 211 209 210 212 214 213 215 218 219 220 224 226 220 213
308 317 333 318 297 276 254 297 331 329 288 203 229 304 313 317 316 313 311 311 311 310 307 308 314 321 328 338 343 345 347 348 353 358 359 359 3 7 11 20 30 42 52 53 56 62 62 60 64 72 81 95 117 137 148 162 174 183 200 207 207 208 212 215 215 214 215 214 213 213 212 212 211 209 206 208 210 210 211 212 214 215 218 223 226 220
324 324 342 329 303 301 324 336 337 329 284 280 307 315 314 314 311 307 306 306 306 306 305 307 310 313 321 336 342 345 348 349 351 355 355 355 359 6 14 22 28 38 52 57 58 64 64 58 57 63 68 75 94 118 130 145 160 172 193 206 210 212 214 215 215 214 212 211 211 211 211 211 211 210 208 205 207 214 216 214 214 216 214 215 223 226
4 344 341 336 317 320 333 332 325 311 293 294 303 309 311 311 309 305 303 302 301 302 302 301 302 305 315 335 343 344 348 349 349 353 357 357 358 6 18 26 25 29 44 55 57 59 62 58 56 59 61 64 77 98 117 136 147 155 173 185 194 207 214 215 213 211 209 210 212 212 212 210 208 210 210 204 205 219 226 223 221 222 218 214 218 226